This demonstration page uses our WeatherBlox Daily Observations layout. Learn more.

Left ArrowRight Arrow

Hourly Observations for May 31, 2022

Temp ( °F °C ) Dew Point ( °F °C ) Humidity (%) Winds ( mph kmh ) Pressure ( in mb ) Visibility ( mi km ) Precip ( " mm )
12:53 am 00:53 Clear 43 6.1 34 1.1 71 71 Calm 30.11 1020 10 16 0.00 0.00
1:53 am 01:53 Mostly Clear 45 7.2 35 1.7 68 68 NW 5 7 30.11 1020 10 16 0.00 0.00
2:53 am 02:53 Clear 38 3.3 32 0 79 79 W 8 13 30.14 1021 10 16 0.00 0.00
3:53 am 03:53 Clear 33 0.6 30 -1.1 89 89 WSW 5 7 30.16 1022 10 16 0.00 0.00
4:53 am 04:53 Clear 33 0.6 31 -0.6 92 92 SW 9 15 30.18 1022 10 16 0.00 0.00
5:53 am 05:53 Sunny 34 1.1 31 -0.6 89 89 SW 8 13 30.21 1023 10 16 0.00 0.00
6:53 am 06:53 Sunny 41 5 34 1.1 76 76 WSW 7 11 30.22 1023 10 16 0.00 0.00
7:53 am 07:53 Sunny 48 8.9 35 1.7 61 61 W 6 9 30.21 1023 10 16 0.00 0.00
8:53 am 08:53 Sunny 56 13.3 33 0.6 42 42 N 9 15 30.21 1023 10 16 0.00 0.00
9:53 am 09:53 Sunny 59 15 27 -2.8 29 29 N 9 15 30.22 1023 10 16 0.00 0.00
10:53 am 10:53 Sunny 61 16.1 25 -3.9 25 25 N 13 20 30.22 1023 10 16 0.00 0.00
11:53 am 11:53 Sunny 63 17.2 24 -4.4 23 23 N 14 22 30.22 1023 10 16 0.00 0.00
12:53 pm 12:53 Mostly Sunny 64 17.8 23 -5 21 21 NNW 7 11 30.22 1023 10 16 0.00 0.00
1:53 pm 13:53 Sunny 66 18.9 23 -5 19 19 VRB 6 9 30.20 1023 10 16 0.00 0.00
2:53 pm 14:53 Sunny 67 19.4 22 -5.6 18 18 VRB 5 7 30.19 1023 10 16 0.00 0.00
3:53 pm 15:53 Sunny 68 20 20 -6.7 16 16 NW 10 17 30.19 1022 10 16 0.00 0.00
4:53 pm 16:53 Sunny 68 20 21 -6.1 17 17 NNW 14 22 30.19 1023 10 16 0.00 0.00
5:53 pm 17:53 Sunny 68 20 19 -7.2 15 15 NW 10 17 30.19 1022 10 16 0.00 0.00
6:53 pm 18:53 Sunny 67 19.4 21 -6.1 17 17 WNW 8 13 30.18 1022 10 16 0.00 0.00
7:53 pm 19:53 Sunny 64 17.8 21 -6.1 19 19 NNW 9 15 30.18 1022 10 16 0.00 0.00
8:53 pm 20:53 Sunny 61 16.1 21 -6.1 21 21 N 7 11 30.17 1022 10 16 0.00 0.00
9:53 pm 21:53 Clear 57 13.9 21 -6.1 25 25 NNE 8 13 30.19 1022 10 16 0.00 0.00
10:53 pm 22:53 Clear 48 8.9 20 -6.7 33 33 SE 7 11 30.21 1023 10 16 0.00 0.00
11:53 pm 23:53 Clear 44 6.7 20 -6.7 38 38 SSE 5 7 30.21 1023 10 16 0.00 0.00

Powered by AerisWeather